[Date Prev][Date Next][Thread Prev][Thread Next] - [Date Index][Thread Index][Author Index]

2 LIne ISS Keps 10-14



ISS
1 25544U 98067A   02286.92109132  .00049799  00000-0  60849-3 0  2581
2 25544  51.6344 176.6140 0015746 358.4411  85.4769 15.59776865222553


----
Via the sarex mailing list at AMSAT.ORG courtesy of AMSAT-NA.
To unsubscribe, send "unsubscribe sarex" to Majordomo@amsat.org



AMSAT Top AMSAT Home